TAM3296 SBGR-SBEG

Flight info

Callsign TAM3296
Flight time 3h 30m
Altitude 34000
Route GERTU UM417 EVRIV DCT PUDKA DCT MATNA DCT IRUMO
Aircraft A20N/M-SDE2E3FGHIRWXY/LB1

Departure

Time 2026-04-15 12:12
Airport São Paulo/Guarulhos–Governor André Franco Montoro International Airport (SBGR)

Arrival

Time 2026-04-15 15:43
Airport Eduardo Gomes International Airport (SBEG)
Time Latitude Longitude Altitude Speed Heading
2026-04-15 11:50 -23.42867 -46.48345 2468 ft 0 kts 85°
2026-04-15 12:05 -23.42867 -46.48348 2468 ft 2 kts 85°
2026-04-15 12:05 -23.42867 -46.48376 2455 ft 4 kts 101°
2026-04-15 12:05 -23.42858 -46.48403 2468 ft 4 kts 124°
2026-04-15 12:06 -23.42840 -46.48423 2470 ft 4 kts 157°
2026-04-15 12:06 -23.42824 -46.48427 2468 ft 0 kts 180°
2026-04-15 12:08 -23.42825 -46.48427 2468 ft 1 kts 180°
2026-04-15 12:09 -23.42841 -46.48427 2473 ft 4 kts 180°
2026-04-15 12:09 -23.42878 -46.48427 2469 ft 7 kts 180°
2026-04-15 12:09 -23.42920 -46.48440 2468 ft 7 kts 199°
2026-04-15 12:09 -23.42972 -46.48450 2473 ft 8 kts 183°
2026-04-15 12:10 -23.43035 -46.48449 2473 ft 7 kts 159°
2026-04-15 12:10 -23.43082 -46.48433 2468 ft 8 kts 164°
2026-04-15 12:10 -23.43143 -46.48414 2469 ft 10 kts 164°
2026-04-15 12:10 -23.43217 -46.48391 2470 ft 12 kts 163°
2026-04-15 12:11 -23.43297 -46.48365 2472 ft 12 kts 163°
2026-04-15 12:11 -23.43394 -46.48333 2469 ft 10 kts 164°
2026-04-15 12:11 -23.43416 -46.48303 2467 ft 3 kts 93°
2026-04-15 12:11 -23.43408 -46.48267 2466 ft 18 kts 73°
2026-04-15 12:12 -23.43307 -46.47903 2469 ft 81 kts 74°
2026-04-15 12:12 -23.43094 -46.47106 2466 ft 136 kts 73°
2026-04-15 12:12 -23.42794 -46.46006 2733 ft 153 kts 72°
2026-04-15 12:12 -23.42470 -46.44877 3236 ft 166 kts 72°
2026-04-15 12:13 -23.42085 -46.43576 3542 ft 194 kts 71°
2026-04-15 12:13 -23.41643 -46.42074 3822 ft 225 kts 72°
2026-04-15 12:13 -23.41147 -46.40354 4239 ft 248 kts 73°
2026-04-15 12:13 -23.40618 -46.38515 4978 ft 259 kts 73°
2026-04-15 12:14 -23.40037 -46.36629 5729 ft 266 kts 68°
2026-04-15 12:14 -23.39166 -46.34829 6539 ft 272 kts 60°
2026-04-15 12:14 -23.38168 -46.33075 7264 ft 279 kts 58°
2026-04-15 12:14 -23.37121 -46.31283 8083 ft 282 kts 58°
2026-04-15 12:15 -23.36065 -46.29476 8933 ft 284 kts 58°
2026-04-15 12:15 -23.34999 -46.27650 9741 ft 288 kts 59°
2026-04-15 12:15 -23.33918 -46.25792 10436 ft 295 kts 58°
2026-04-15 12:15 -23.32790 -46.23847 10752 ft 314 kts 59°
2026-04-15 12:16 -23.31589 -46.21774 11075 ft 332 kts 58°
2026-04-15 12:16 -23.30334 -46.19609 11574 ft 342 kts 59°
2026-04-15 12:16 -23.29053 -46.17405 12177 ft 347 kts 59°
2026-04-15 12:16 -23.27754 -46.15169 12823 ft 352 kts 58°
2026-04-15 12:17 -23.26439 -46.12906 13487 ft 356 kts 58°
2026-04-15 12:17 -23.25123 -46.10641 14133 ft 361 kts 58°
2026-04-15 12:17 -23.23756 -46.08291 14759 ft 365 kts 58°
2026-04-15 12:17 -23.22342 -46.06018 15354 ft 370 kts 52°
2026-04-15 12:18 -23.20481 -46.04076 15947 ft 374 kts 35°
2026-04-15 12:18 -23.18162 -46.02776 16552 ft 377 kts 21°
2026-04-15 12:18 -23.15613 -46.02095 17127 ft 381 kts
2026-04-15 12:18 -23.12976 -46.02347 17697 ft 382 kts 343°
2026-04-15 12:19 -23.10581 -46.03582 18261 ft 383 kts 323°
2026-04-15 12:19 -23.08656 -46.05573 18754 ft 384 kts 310°
2026-04-15 12:19 -23.06928 -46.07806 19181 ft 387 kts 308°
2026-04-15 12:19 -23.05218 -46.10085 19641 ft 391 kts 308°
2026-04-15 12:20 -23.03487 -46.12382 20096 ft 394 kts 308°
2026-04-15 12:20 -23.01759 -46.14657 20554 ft 397 kts 308°
2026-04-15 12:20 -22.99993 -46.16969 21012 ft 400 kts 308°
2026-04-15 12:20 -22.98208 -46.19299 21466 ft 403 kts 308°
2026-04-15 12:21 -22.96404 -46.21648 21954 ft 406 kts 308°
2026-04-15 12:21 -22.94588 -46.24010 22428 ft 410 kts 307°
2026-04-15 12:21 -22.92752 -46.26394 22901 ft 413 kts 307°
2026-04-15 12:21 -22.90917 -46.28812 23394 ft 416 kts 304°
2026-04-15 12:22 -22.89346 -46.31439 23843 ft 416 kts 296°
2026-04-15 12:22 -22.88029 -46.34244 24262 ft 417 kts 293°
2026-04-15 12:22 -22.86766 -46.37088 24709 ft 419 kts 293°
2026-04-15 12:22 -22.85504 -46.39948 25126 ft 421 kts 293°
2026-04-15 12:23 -22.84232 -46.42822 25554 ft 423 kts 293°
2026-04-15 12:23 -22.82970 -46.45664 25961 ft 425 kts 293°
2026-04-15 12:23 -22.81682 -46.48558 26385 ft 427 kts 293°
2026-04-15 12:23 -22.80385 -46.51467 26795 ft 429 kts 293°
2026-04-15 12:24 -22.79083 -46.54385 27200 ft 431 kts 293°
2026-04-15 12:24 -22.77774 -46.57315 27602 ft 432 kts 293°
2026-04-15 12:24 -22.76460 -46.60255 27966 ft 435 kts 293°
2026-04-15 12:24 -22.75135 -46.63214 28338 ft 437 kts 293°
2026-04-15 12:25 -22.73805 -46.66187 28712 ft 439 kts 293°
2026-04-15 12:25 -22.72469 -46.69168 29081 ft 441 kts 294°
2026-04-15 12:25 -22.71127 -46.72163 29440 ft 443 kts 294°
2026-04-15 12:25 -22.69777 -46.75173 29801 ft 445 kts 294°
2026-04-15 12:26 -22.68435 -46.78162 30137 ft 447 kts 294°
2026-04-15 12:26 -22.67073 -46.81195 30455 ft 448 kts 294°
2026-04-15 12:26 -22.65704 -46.84233 30780 ft 449 kts 294°
2026-04-15 12:26 -22.64334 -46.87270 31164 ft 448 kts 294°
2026-04-15 12:27 -22.62966 -46.90297 31593 ft 446 kts 294°
2026-04-15 12:27 -22.61608 -46.93304 32022 ft 444 kts 293°
2026-04-15 12:27 -22.60255 -46.96305 32441 ft 442 kts 293°
2026-04-15 12:27 -22.58910 -46.99289 32867 ft 440 kts 293°
2026-04-15 12:28 -22.57571 -47.02259 33298 ft 438 kts 293°
2026-04-15 12:28 -22.56237 -47.05217 33711 ft 436 kts 292°
2026-04-15 12:28 -22.55066 -47.08229 34045 ft 433 kts 286°
2026-04-15 12:29 -22.53673 -47.13421 34114 ft 431 kts 282°
2026-04-15 12:29 -22.51882 -47.20715 34116 ft 431 kts 283°
2026-04-15 12:30 -22.50584 -47.25958 34118 ft 431 kts 283°
2026-04-15 12:30 -22.49038 -47.32175 34116 ft 431 kts 283°
2026-04-15 12:31 -22.47478 -47.38431 34119 ft 430 kts 283°
2026-04-15 12:31 -22.45913 -47.44688 34116 ft 430 kts 283°
2026-04-15 12:32 -22.44307 -47.50919 34115 ft 431 kts 287°
2026-04-15 12:32 -22.41443 -47.56632 34114 ft 438 kts 307°
2026-04-15 12:33 -22.36837 -47.61006 34118 ft 443 kts 320°
2026-04-15 12:33 -22.31790 -47.64802 34116 ft 444 kts 322°
2026-04-15 12:34 -22.26673 -47.68529 34114 ft 444 kts 322°
2026-04-15 12:34 -22.21568 -47.72290 34112 ft 444 kts 322°
2026-04-15 12:35 -22.16480 -47.76076 34113 ft 444 kts 322°
2026-04-15 12:35 -22.11391 -47.79874 34113 ft 444 kts 322°
2026-04-15 12:36 -22.06339 -47.83640 34110 ft 443 kts 322°
2026-04-15 12:36 -22.01270 -47.87415 34107 ft 443 kts 322°
2026-04-15 12:37 -21.96185 -47.91197 34104 ft 444 kts 322°
2026-04-15 12:37 -21.91097 -47.94977 34104 ft 444 kts 322°
2026-04-15 12:38 -21.86045 -47.98728 34100 ft 444 kts 322°
2026-04-15 12:38 -21.80959 -48.02500 34095 ft 443 kts 322°
2026-04-15 12:39 -21.75905 -48.06293 34096 ft 442 kts 322°
2026-04-15 12:39 -21.70886 -48.10129 34098 ft 442 kts 321°
2026-04-15 12:40 -21.65876 -48.13965 34090 ft 442 kts 322°
2026-04-15 12:40 -21.60848 -48.17802 34092 ft 443 kts 322°
2026-04-15 12:41 -21.55841 -48.21616 34091 ft 444 kts 322°
2026-04-15 12:41 -21.50804 -48.25448 34090 ft 443 kts 322°
2026-04-15 12:42 -21.45781 -48.29265 34082 ft 442 kts 322°
2026-04-15 12:42 -21.40743 -48.33091 34087 ft 444 kts 322°
2026-04-15 12:43 -21.35697 -48.36920 34086 ft 444 kts 322°
2026-04-15 12:43 -21.30645 -48.40751 34087 ft 444 kts 322°
2026-04-15 12:44 -21.25595 -48.44575 34082 ft 444 kts 322°
2026-04-15 12:44 -21.20552 -48.48392 34081 ft 443 kts 322°
2026-04-15 12:45 -21.15517 -48.52200 34079 ft 443 kts 322°
2026-04-15 12:45 -21.10509 -48.55984 34080 ft 443 kts 322°
2026-04-15 12:46 -21.05468 -48.59791 34072 ft 443 kts 322°
2026-04-15 12:46 -21.00411 -48.63605 34073 ft 445 kts 322°
2026-04-15 12:47 -20.95345 -48.67425 34072 ft 445 kts 323°
2026-04-15 12:47 -20.90324 -48.71204 34076 ft 444 kts 323°
2026-04-15 12:48 -20.85271 -48.75006 34065 ft 444 kts 323°
2026-04-15 12:48 -20.80210 -48.78810 34085 ft 444 kts 322°
2026-04-15 12:49 -20.75139 -48.82620 34070 ft 445 kts 322°
2026-04-15 12:49 -20.70105 -48.86397 34071 ft 445 kts 323°
2026-04-15 12:50 -20.65044 -48.90191 34072 ft 445 kts 323°
2026-04-15 12:50 -20.59972 -48.93991 34066 ft 445 kts 322°
2026-04-15 12:51 -20.54896 -48.97790 34061 ft 445 kts 322°
2026-04-15 12:51 -20.49823 -49.01584 34065 ft 445 kts 322°
2026-04-15 12:52 -20.44744 -49.05380 34062 ft 445 kts 323°
2026-04-15 12:52 -20.39705 -49.09142 34063 ft 445 kts 322°
2026-04-15 12:53 -20.34643 -49.12918 34068 ft 443 kts 322°
2026-04-15 12:53 -20.29598 -49.16680 34058 ft 442 kts 322°
2026-04-15 12:54 -20.24558 -49.20434 34046 ft 442 kts 322°
2026-04-15 12:54 -20.19515 -49.24188 34059 ft 443 kts 322°
2026-04-15 12:55 -20.14459 -49.27948 34044 ft 443 kts 322°
2026-04-15 12:55 -20.09399 -49.31706 34046 ft 443 kts 322°
2026-04-15 12:56 -20.04389 -49.35423 34046 ft 440 kts 322°
2026-04-15 12:56 -19.99361 -49.39155 34045 ft 440 kts 322°
2026-04-15 12:57 -19.94326 -49.42890 34047 ft 441 kts 322°
2026-04-15 12:57 -19.89313 -49.46603 34041 ft 441 kts 322°
2026-04-15 12:58 -19.84281 -49.50327 34056 ft 441 kts 322°
2026-04-15 12:58 -19.79240 -49.54055 34041 ft 440 kts 322°
2026-04-15 12:59 -19.71748 -49.59590 34039 ft 438 kts 322°
2026-04-15 12:59 -19.66740 -49.63286 34036 ft 438 kts 322°
2026-04-15 13:00 -19.61735 -49.66978 34040 ft 438 kts 322°
2026-04-15 13:00 -19.56722 -49.70673 34046 ft 438 kts 322°
2026-04-15 13:01 -19.51707 -49.74366 34039 ft 438 kts 322°
2026-04-15 13:01 -19.46724 -49.78033 34038 ft 438 kts 322°
2026-04-15 13:02 -19.41723 -49.81709 34031 ft 437 kts 322°
2026-04-15 13:02 -19.36719 -49.85387 34024 ft 437 kts 322°
2026-04-15 13:03 -19.31723 -49.89010 34031 ft 438 kts 323°
2026-04-15 13:03 -19.26656 -49.92598 34032 ft 438 kts 323°
2026-04-15 13:04 -19.21569 -49.96186 34031 ft 438 kts 323°
2026-04-15 13:04 -19.16492 -49.99772 34030 ft 438 kts 323°
2026-04-15 13:05 -19.11449 -50.03339 34028 ft 439 kts 323°
2026-04-15 13:05 -19.06370 -50.06929 34028 ft 439 kts 323°
2026-04-15 13:06 -19.01291 -50.10517 34028 ft 439 kts 323°
2026-04-15 13:06 -18.96213 -50.14102 34026 ft 439 kts 323°
2026-04-15 13:07 -18.91161 -50.17664 34020 ft 439 kts 323°
2026-04-15 13:07 -18.86059 -50.21259 34016 ft 439 kts 323°
2026-04-15 13:08 -18.80976 -50.24837 34018 ft 439 kts 323°
2026-04-15 13:08 -18.75895 -50.28412 34018 ft 439 kts 323°
2026-04-15 13:09 -18.70851 -50.31959 34018 ft 438 kts 323°
2026-04-15 13:09 -18.65764 -50.35533 34019 ft 439 kts 323°
2026-04-15 13:10 -18.60673 -50.39108 34017 ft 439 kts 323°
2026-04-15 13:10 -18.55582 -50.42680 34017 ft 439 kts 323°
2026-04-15 13:11 -18.50501 -50.46241 34022 ft 438 kts 323°
2026-04-15 13:11 -18.45424 -50.49798 34021 ft 438 kts 323°
2026-04-15 13:12 -18.40370 -50.53337 34025 ft 439 kts 323°
2026-04-15 13:12 -18.35283 -50.56895 34027 ft 439 kts 323°
2026-04-15 13:13 -18.30195 -50.60452 34030 ft 439 kts 323°
2026-04-15 13:13 -18.25108 -50.64005 34019 ft 439 kts 323°
2026-04-15 13:14 -18.20011 -50.67563 34029 ft 439 kts 323°
2026-04-15 13:14 -18.14911 -50.71120 34029 ft 439 kts 323°
2026-04-15 13:15 -18.09843 -50.74653 34028 ft 439 kts 323°
2026-04-15 13:15 -18.04751 -50.78199 34030 ft 439 kts 323°
2026-04-15 13:16 -17.99643 -50.81755 34028 ft 440 kts 323°
2026-04-15 13:16 -17.95388 -50.84715 34030 ft 441 kts 323°
2026-04-15 13:17 -17.90269 -50.88274 34028 ft 441 kts 323°
2026-04-15 13:17 -17.85149 -50.91831 34031 ft 441 kts 323°
2026-04-15 13:18 -17.80065 -50.95359 34029 ft 441 kts 323°
2026-04-15 13:18 -17.74942 -50.98914 34033 ft 442 kts 323°
2026-04-15 13:19 -17.69804 -51.02476 34029 ft 442 kts 323°
2026-04-15 13:19 -17.64662 -51.06038 34030 ft 442 kts 323°
2026-04-15 13:20 -17.59551 -51.09576 34033 ft 442 kts 323°
2026-04-15 13:20 -17.54409 -51.13133 34030 ft 442 kts 323°
2026-04-15 13:21 -17.49264 -51.16689 34032 ft 442 kts 323°
2026-04-15 13:21 -17.44122 -51.20242 34031 ft 442 kts 323°
2026-04-15 13:22 -17.38984 -51.23789 34032 ft 442 kts 323°
2026-04-15 13:22 -17.33878 -51.27311 34037 ft 442 kts 323°
2026-04-15 13:23 -17.28721 -51.30867 34028 ft 443 kts 323°
2026-04-15 13:23 -17.23558 -51.34424 34023 ft 444 kts 323°
2026-04-15 13:24 -17.18439 -51.37948 34024 ft 443 kts 323°
2026-04-15 13:24 -17.13296 -51.41486 34015 ft 442 kts 323°
2026-04-15 13:25 -17.08150 -51.45024 34018 ft 442 kts 323°
2026-04-15 13:25 -17.02984 -51.48574 34017 ft 444 kts 323°
2026-04-15 13:26 -16.97820 -51.52120 34016 ft 444 kts 323°
2026-04-15 13:26 -16.92692 -51.55638 34012 ft 444 kts 323°
2026-04-15 13:27 -16.87519 -51.59185 34015 ft 444 kts 323°
2026-04-15 13:27 -16.82351 -51.62726 34002 ft 444 kts 323°
2026-04-15 13:28 -16.77176 -51.66270 34014 ft 445 kts 323°
2026-04-15 13:28 -16.72023 -51.69797 33999 ft 445 kts 323°
2026-04-15 13:29 -16.66838 -51.73343 34002 ft 445 kts 323°
2026-04-15 13:29 -16.61660 -51.76882 33985 ft 445 kts 324°
2026-04-15 13:30 -16.56454 -51.80438 33997 ft 447 kts 324°
2026-04-15 13:30 -16.51280 -51.83970 34001 ft 447 kts 324°
2026-04-15 13:31 -16.46076 -51.87519 33990 ft 446 kts 324°
2026-04-15 13:31 -16.40878 -51.91062 33989 ft 446 kts 324°
2026-04-15 13:32 -16.35675 -51.94606 33981 ft 447 kts 324°
2026-04-15 13:32 -16.30451 -51.98163 33982 ft 448 kts 324°
2026-04-15 13:33 -16.25233 -52.01713 33979 ft 448 kts 324°
2026-04-15 13:33 -16.20008 -52.05265 33984 ft 448 kts 324°
2026-04-15 13:34 -16.14821 -52.08790 33978 ft 447 kts 324°
2026-04-15 13:34 -16.09606 -52.12332 33982 ft 448 kts 325°
2026-04-15 13:35 -16.04374 -52.15882 33992 ft 449 kts 325°
2026-04-15 13:35 -15.99148 -52.19425 34000 ft 449 kts 325°
2026-04-15 13:36 -15.93917 -52.22971 34008 ft 448 kts 325°
2026-04-15 13:36 -15.88686 -52.26514 34013 ft 448 kts 325°
2026-04-15 13:37 -15.83460 -52.30052 34020 ft 447 kts 325°
2026-04-15 13:37 -15.78280 -52.33556 34020 ft 447 kts 325°
2026-04-15 13:38 -15.73061 -52.37084 34012 ft 446 kts 325°
2026-04-15 13:38 -15.67849 -52.40605 34005 ft 446 kts 325°
2026-04-15 13:39 -15.62647 -52.44118 33997 ft 446 kts 325°
2026-04-15 13:39 -15.57466 -52.47614 33992 ft 447 kts 325°
2026-04-15 13:40 -15.52251 -52.51130 33987 ft 447 kts 325°
2026-04-15 13:40 -15.47028 -52.54651 33989 ft 446 kts 326°
2026-04-15 13:41 -15.41818 -52.58160 33989 ft 446 kts 326°
2026-04-15 13:41 -15.36610 -52.61666 33984 ft 447 kts 326°
2026-04-15 13:42 -15.31382 -52.65183 33986 ft 448 kts 326°
2026-04-15 13:42 -15.26184 -52.68678 33981 ft 448 kts 326°
2026-04-15 13:43 -15.20939 -52.72202 33980 ft 448 kts 326°
2026-04-15 13:43 -15.15704 -52.75717 33979 ft 448 kts 326°
2026-04-15 13:44 -15.10496 -52.79212 33979 ft 448 kts 326°
2026-04-15 13:44 -15.05263 -52.82723 33977 ft 448 kts 326°
2026-04-15 13:45 -15.00035 -52.86227 33977 ft 448 kts 326°
2026-04-15 13:47 -14.79116 -53.00229 33981 ft 449 kts 326°
2026-04-15 13:47 -14.73867 -53.03737 33978 ft 449 kts 326°
2026-04-15 13:48 -14.68617 -53.07244 33982 ft 449 kts 326°
2026-04-15 13:48 -14.63372 -53.10745 33980 ft 449 kts 326°
2026-04-15 13:49 -14.58109 -53.14257 33979 ft 450 kts 326°
2026-04-15 13:49 -14.52881 -53.17743 33981 ft 450 kts 326°
2026-04-15 13:50 -14.47607 -53.21258 33982 ft 450 kts 326°
2026-04-15 13:50 -14.42337 -53.24767 33982 ft 450 kts 326°
2026-04-15 13:51 -14.37072 -53.28272 33979 ft 450 kts 326°
2026-04-15 13:51 -14.31803 -53.31777 33983 ft 451 kts 326°
2026-04-15 13:52 -14.26564 -53.35261 33984 ft 451 kts 326°
2026-04-15 13:52 -14.21288 -53.38768 33985 ft 451 kts 326°
2026-04-15 13:53 -14.16016 -53.42269 33982 ft 451 kts 326°
2026-04-15 13:53 -14.10734 -53.45774 33984 ft 451 kts 327°
2026-04-15 13:54 -14.05445 -53.49283 33982 ft 452 kts 327°
2026-04-15 13:54 -14.00182 -53.52773 33982 ft 452 kts 327°
2026-04-15 13:55 -13.94885 -53.56283 33983 ft 452 kts 327°
2026-04-15 13:55 -13.89588 -53.59790 33983 ft 452 kts 327°
2026-04-15 13:56 -13.84290 -53.63292 33978 ft 452 kts 326°
2026-04-15 13:56 -13.79004 -53.66784 33977 ft 452 kts 327°
2026-04-15 13:57 -13.73707 -53.70283 33976 ft 452 kts 327°
2026-04-15 13:57 -13.68401 -53.73786 33980 ft 453 kts 326°
2026-04-15 13:58 -13.63101 -53.77282 33974 ft 453 kts 327°
2026-04-15 13:58 -13.57800 -53.80777 33973 ft 452 kts 327°
2026-04-15 13:59 -13.52532 -53.84249 33973 ft 453 kts 327°
2026-04-15 13:59 -13.47221 -53.87747 33974 ft 454 kts 327°
2026-04-15 14:00 -13.41908 -53.91244 33974 ft 453 kts 327°
2026-04-15 14:00 -13.36609 -53.94730 33976 ft 452 kts 327°
2026-04-15 14:01 -13.28679 -53.99945 33972 ft 454 kts 327°
2026-04-15 14:02 -13.23365 -54.03436 33972 ft 453 kts 328°
2026-04-15 14:02 -13.18058 -54.06922 33972 ft 452 kts 328°
2026-04-15 14:03 -13.12760 -54.10399 33968 ft 452 kts 327°
2026-04-15 14:03 -13.08354 -54.13289 33968 ft 452 kts 327°
2026-04-15 14:04 -13.03039 -54.16775 33972 ft 453 kts 328°
2026-04-15 14:04 -12.97722 -54.20260 33970 ft 453 kts 327°
2026-04-15 14:05 -12.92410 -54.23739 33969 ft 453 kts 327°
2026-04-15 14:05 -12.87102 -54.27215 33970 ft 451 kts 328°
2026-04-15 14:06 -12.81810 -54.30678 33968 ft 451 kts 328°
2026-04-15 14:06 -12.76557 -54.34114 33963 ft 451 kts 328°
2026-04-15 14:07 -12.71258 -54.37578 33969 ft 450 kts 328°
2026-04-15 14:07 -12.65964 -54.41037 33965 ft 451 kts 328°
2026-04-15 14:08 -12.60696 -54.44477 33963 ft 451 kts 328°
2026-04-15 14:08 -12.55395 -54.47938 33967 ft 451 kts 328°
2026-04-15 14:09 -12.50109 -54.51387 33960 ft 450 kts 328°
2026-04-15 14:09 -12.44861 -54.54810 33962 ft 450 kts 328°
2026-04-15 14:10 -12.39561 -54.58264 33964 ft 451 kts 328°
2026-04-15 14:10 -12.34276 -54.61707 33968 ft 448 kts 328°
2026-04-15 14:11 -12.29028 -54.65124 33968 ft 446 kts 328°
2026-04-15 14:11 -12.23780 -54.68540 33967 ft 448 kts 328°
2026-04-15 14:12 -12.18503 -54.71972 33963 ft 450 kts 328°
2026-04-15 14:12 -12.13259 -54.75383 33958 ft 449 kts 328°
2026-04-15 14:13 -12.07980 -54.78814 33963 ft 450 kts 328°
2026-04-15 14:13 -12.02696 -54.82247 33964 ft 450 kts 328°
2026-04-15 14:14 -11.97400 -54.85685 33962 ft 451 kts 328°
2026-04-15 14:14 -11.92079 -54.89139 33960 ft 453 kts 328°
2026-04-15 14:15 -11.86784 -54.92574 33961 ft 453 kts 328°
2026-04-15 14:15 -11.81455 -54.96029 33961 ft 453 kts 328°
2026-04-15 14:16 -11.76135 -54.99477 33961 ft 453 kts 328°
2026-04-15 14:16 -11.70812 -55.02925 33960 ft 454 kts 328°
2026-04-15 14:17 -11.65457 -55.06392 33959 ft 457 kts 328°
2026-04-15 14:17 -11.60088 -55.09868 33961 ft 456 kts 328°
2026-04-15 14:18 -11.54757 -55.13316 33957 ft 456 kts 328°
2026-04-15 14:18 -11.49392 -55.16785 33958 ft 456 kts 328°
2026-04-15 14:19 -11.44025 -55.20254 33959 ft 457 kts 328°
2026-04-15 14:19 -11.38639 -55.23733 33962 ft 459 kts 328°
2026-04-15 14:20 -11.33238 -55.27221 33961 ft 459 kts 328°
2026-04-15 14:20 -11.27889 -55.30674 33960 ft 457 kts 328°
2026-04-15 14:21 -11.22511 -55.34142 33960 ft 456 kts 328°
2026-04-15 14:21 -11.17148 -55.37601 33958 ft 456 kts 328°
2026-04-15 14:22 -11.11774 -55.41065 33959 ft 457 kts 328°
2026-04-15 14:22 -11.06390 -55.44534 33957 ft 458 kts 328°
2026-04-15 14:23 -11.01003 -55.48004 33957 ft 458 kts 328°
2026-04-15 14:23 -10.95652 -55.51448 33951 ft 457 kts 328°
2026-04-15 14:24 -10.90267 -55.54912 33951 ft 457 kts 327°
2026-04-15 14:24 -10.84866 -55.58387 33954 ft 461 kts 327°
2026-04-15 14:25 -10.79446 -55.61871 33948 ft 461 kts 327°
2026-04-15 14:25 -10.74029 -55.65352 33948 ft 460 kts 327°
2026-04-15 14:26 -10.68639 -55.68814 33951 ft 462 kts 328°
2026-04-15 14:26 -10.63188 -55.72314 33953 ft 462 kts 328°
2026-04-15 14:27 -10.57754 -55.75802 33947 ft 461 kts 328°
2026-04-15 14:27 -10.52320 -55.79287 33946 ft 462 kts 327°
2026-04-15 14:28 -10.46870 -55.82780 33949 ft 463 kts 327°
2026-04-15 14:28 -10.41452 -55.86254 33950 ft 463 kts 327°
2026-04-15 14:29 -10.36004 -55.89745 33947 ft 462 kts 327°
2026-04-15 14:29 -10.30556 -55.93234 33943 ft 463 kts 328°
2026-04-15 14:30 -10.25089 -55.96734 33950 ft 464 kts 328°
2026-04-15 14:30 -10.19656 -56.00211 33952 ft 464 kts 328°
2026-04-15 14:31 -10.14186 -56.03709 33962 ft 463 kts 328°
2026-04-15 14:31 -10.08728 -56.07199 33968 ft 464 kts 328°
2026-04-15 14:32 -10.03254 -56.10698 33982 ft 464 kts 328°
2026-04-15 14:32 -9.97784 -56.14192 33988 ft 463 kts 328°
2026-04-15 14:33 -9.92353 -56.17661 33995 ft 464 kts 328°
2026-04-15 14:33 -9.86891 -56.21147 33993 ft 464 kts 328°
2026-04-15 14:34 -9.81421 -56.24638 33945 ft 464 kts 328°
2026-04-15 14:34 -9.75955 -56.28124 33944 ft 463 kts 328°
2026-04-15 14:35 -9.70544 -56.31605 33944 ft 464 kts 327°
2026-04-15 14:35 -9.65129 -56.35177 33947 ft 464 kts 327°
2026-04-15 14:36 -9.59719 -56.38748 33949 ft 464 kts 327°
2026-04-15 14:36 -9.54300 -56.42322 33944 ft 464 kts 327°
2026-04-15 14:37 -9.48887 -56.45889 33944 ft 464 kts 327°
2026-04-15 14:37 -9.43499 -56.49439 33940 ft 464 kts 327°
2026-04-15 14:38 -9.38091 -56.53000 33945 ft 463 kts 327°
2026-04-15 14:38 -9.32684 -56.56558 33946 ft 464 kts 327°
2026-04-15 14:39 -9.27274 -56.60116 33945 ft 464 kts 327°
2026-04-15 14:39 -9.21855 -56.63681 33938 ft 463 kts 327°
2026-04-15 14:40 -9.16447 -56.67238 33939 ft 463 kts 327°
2026-04-15 14:40 -9.11061 -56.70777 33943 ft 465 kts 327°
2026-04-15 14:41 -9.05635 -56.74343 33936 ft 465 kts 327°
2026-04-15 14:41 -9.00203 -56.77910 33940 ft 465 kts 327°
2026-04-15 14:42 -8.94773 -56.81475 33938 ft 465 kts 327°
2026-04-15 14:42 -8.89338 -56.85041 33938 ft 465 kts 326°
2026-04-15 14:43 -8.83929 -56.88590 33940 ft 466 kts 327°
2026-04-15 14:43 -8.78483 -56.92161 33936 ft 466 kts 327°
2026-04-15 14:44 -8.73035 -56.95733 33939 ft 466 kts 327°
2026-04-15 14:44 -8.67587 -56.99304 33938 ft 467 kts 327°
2026-04-15 14:45 -8.62139 -57.02872 33939 ft 467 kts 327°
2026-04-15 14:45 -8.56691 -57.06441 33939 ft 466 kts 327°
2026-04-15 14:46 -8.51244 -57.10006 33941 ft 466 kts 327°
2026-04-15 14:46 -8.45808 -57.13564 33941 ft 465 kts 327°
2026-04-15 14:47 -8.40376 -57.17117 33939 ft 465 kts 327°
2026-04-15 14:47 -8.34934 -57.20676 33939 ft 465 kts 327°
2026-04-15 14:48 -8.29502 -57.24228 33941 ft 465 kts 327°
2026-04-15 14:48 -8.24094 -57.27762 33939 ft 465 kts 327°
2026-04-15 14:49 -8.18656 -57.31315 33938 ft 466 kts 327°
2026-04-15 14:49 -8.13207 -57.34874 33936 ft 466 kts 327°
2026-04-15 14:50 -8.07794 -57.38408 33929 ft 466 kts 327°
2026-04-15 14:50 -8.02358 -57.41956 33938 ft 465 kts 327°
2026-04-15 14:51 -7.96926 -57.45500 33935 ft 465 kts 327°
2026-04-15 14:51 -7.91483 -57.49050 33934 ft 466 kts 327°
2026-04-15 14:52 -7.86959 -57.52000 33935 ft 466 kts 327°
2026-04-15 14:52 -7.81513 -57.55550 33935 ft 466 kts 327°
2026-04-15 14:53 -7.76074 -57.59095 33932 ft 466 kts 327°
2026-04-15 14:53 -7.70633 -57.62640 33931 ft 466 kts 327°
2026-04-15 14:54 -7.65188 -57.66186 33938 ft 466 kts 327°
2026-04-15 14:54 -7.59780 -57.69707 33934 ft 465 kts 327°
2026-04-15 14:55 -7.54341 -57.73247 33932 ft 465 kts 327°
2026-04-15 14:55 -7.48909 -57.76781 33934 ft 465 kts 327°
2026-04-15 14:56 -7.43473 -57.80318 33936 ft 465 kts 327°
2026-04-15 14:56 -7.38036 -57.83853 33936 ft 465 kts 327°
2026-04-15 14:57 -7.32599 -57.87388 33933 ft 465 kts 327°
2026-04-15 14:57 -7.27166 -57.90919 33933 ft 465 kts 327°
2026-04-15 14:58 -7.21738 -57.94445 33937 ft 463 kts 327°
2026-04-15 14:58 -7.16358 -57.97940 33936 ft 462 kts 327°
2026-04-15 14:59 -7.10950 -58.01452 33933 ft 462 kts 327°
2026-04-15 14:59 -7.05540 -58.04964 33934 ft 462 kts 327°
2026-04-15 15:00 -7.00127 -58.08477 33933 ft 462 kts 327°
2026-04-15 15:00 -6.94713 -58.11989 33938 ft 463 kts 327°
2026-04-15 15:01 -6.89293 -58.15505 33937 ft 463 kts 327°
2026-04-15 15:01 -6.83887 -58.19010 33934 ft 463 kts 327°
2026-04-15 15:02 -6.78476 -58.22518 33934 ft 462 kts 328°
2026-04-15 15:02 -6.73075 -58.26018 33934 ft 462 kts 328°
2026-04-15 15:03 -6.67678 -58.29515 33932 ft 461 kts 328°
2026-04-15 15:03 -6.62279 -58.33012 33925 ft 462 kts 328°
2026-04-15 15:04 -6.56912 -58.36487 33931 ft 462 kts 328°
2026-04-15 15:04 -6.51511 -58.39984 33933 ft 461 kts 327°
2026-04-15 15:05 -6.46110 -58.43480 33931 ft 461 kts 328°
2026-04-15 15:05 -6.40713 -58.46972 33930 ft 461 kts 328°
2026-04-15 15:06 -6.32630 -58.52201 33933 ft 460 kts 328°
2026-04-15 15:06 -6.27240 -58.55686 33932 ft 460 kts 328°
2026-04-15 15:07 -6.21891 -58.59144 33931 ft 460 kts 328°
2026-04-15 15:07 -6.16502 -58.62627 33930 ft 460 kts 328°
2026-04-15 15:08 -6.11116 -58.66108 33930 ft 460 kts 328°
2026-04-15 15:08 -6.05733 -58.69585 33927 ft 460 kts 328°
2026-04-15 15:09 -6.00345 -58.73065 33924 ft 460 kts 328°
2026-04-15 15:09 -5.94957 -58.76544 33925 ft 460 kts 328°
2026-04-15 15:10 -5.89604 -58.79999 33927 ft 460 kts 328°
2026-04-15 15:10 -5.84217 -58.83476 33928 ft 460 kts 328°
2026-04-15 15:11 -5.78834 -58.86950 33924 ft 460 kts 328°
2026-04-15 15:11 -5.73446 -58.90426 33924 ft 460 kts 328°
2026-04-15 15:12 -5.68065 -58.93896 33923 ft 460 kts 328°
2026-04-15 15:12 -5.62705 -58.97352 33922 ft 460 kts 328°
2026-04-15 15:13 -5.57326 -59.00820 33920 ft 460 kts 328°
2026-04-15 15:13 -5.51942 -59.04290 33917 ft 460 kts 328°
2026-04-15 15:14 -5.46559 -59.07759 33916 ft 460 kts 328°
2026-04-15 15:14 -5.41161 -59.11237 33916 ft 460 kts 328°
2026-04-15 15:15 -5.35814 -59.14681 33921 ft 460 kts 328°
2026-04-15 15:15 -5.30423 -59.18152 33921 ft 460 kts 328°
2026-04-15 15:16 -5.25031 -59.21624 33919 ft 460 kts 328°
2026-04-15 15:16 -5.19644 -59.25091 33922 ft 460 kts 328°
2026-04-15 15:17 -5.14283 -59.28542 33919 ft 460 kts 328°
2026-04-15 15:17 -5.08879 -59.32019 33913 ft 460 kts 328°
2026-04-15 15:18 -5.03483 -59.35490 33912 ft 461 kts 328°
2026-04-15 15:18 -4.98081 -59.38964 33917 ft 461 kts 328°
2026-04-15 15:19 -4.92680 -59.42438 33914 ft 461 kts 328°
2026-04-15 15:19 -4.87287 -59.45906 33916 ft 460 kts 329°
2026-04-15 15:20 -4.81897 -59.49370 33918 ft 460 kts 329°
2026-04-15 15:20 -4.76539 -59.52814 33916 ft 460 kts 329°
2026-04-15 15:21 -4.71145 -59.56280 33914 ft 460 kts 329°
2026-04-15 15:21 -4.65754 -59.59742 33914 ft 460 kts 329°
2026-04-15 15:22 -4.60364 -59.63205 33914 ft 460 kts 329°
2026-04-15 15:22 -4.54971 -59.66668 33914 ft 460 kts 329°
2026-04-15 15:23 -4.49612 -59.70109 33587 ft 459 kts 329°
2026-04-15 15:23 -4.46937 -59.71827 33115 ft 455 kts 329°
2026-04-15 15:23 -4.44266 -59.73541 32398 ft 458 kts 328°
2026-04-15 15:24 -4.41574 -59.75269 31704 ft 459 kts 328°
2026-04-15 15:24 -4.38885 -59.76995 31196 ft 456 kts 328°
2026-04-15 15:24 -4.36220 -59.78706 30652 ft 454 kts 328°
2026-04-15 15:24 -4.33567 -59.80408 30107 ft 452 kts 328°
2026-04-15 15:25 -4.30920 -59.82106 29476 ft 450 kts 328°
2026-04-15 15:25 -4.28281 -59.83800 28896 ft 447 kts 328°
2026-04-15 15:25 -4.25671 -59.85475 28336 ft 444 kts 328°
2026-04-15 15:25 -4.23070 -59.87144 27777 ft 441 kts 328°
2026-04-15 15:26 -4.20493 -59.88797 27226 ft 439 kts 328°
2026-04-15 15:26 -4.17959 -59.90422 26677 ft 437 kts 328°
2026-04-15 15:26 -4.15408 -59.92058 26113 ft 435 kts 328°
2026-04-15 15:26 -4.12864 -59.93690 25549 ft 433 kts 328°
2026-04-15 15:27 -4.10286 -59.95224 24984 ft 430 kts 335°
2026-04-15 15:27 -4.07488 -59.96297 24320 ft 429 kts 343°
2026-04-15 15:27 -4.04642 -59.97167 23718 ft 426 kts 345°
2026-04-15 15:27 -4.01810 -59.98001 23088 ft 422 kts 345°
2026-04-15 15:28 -3.99006 -59.98826 22412 ft 418 kts 344°
2026-04-15 15:28 -3.96228 -59.99649 21700 ft 415 kts 344°
2026-04-15 15:28 -3.93483 -60.00466 21103 ft 409 kts 345°
2026-04-15 15:28 -3.90789 -60.01270 20510 ft 398 kts 345°
2026-04-15 15:29 -3.88177 -60.02051 19978 ft 387 kts 344°
2026-04-15 15:29 -3.85654 -60.02806 19459 ft 380 kts 345°
2026-04-15 15:29 -3.83122 -60.03563 18929 ft 379 kts 345°
2026-04-15 15:29 -3.80596 -60.04319 18419 ft 378 kts 344°
2026-04-15 15:30 -3.78073 -60.05074 17853 ft 377 kts 344°
2026-04-15 15:30 -3.75565 -60.05824 17302 ft 375 kts 344°
2026-04-15 15:30 -3.73069 -60.06572 16782 ft 372 kts 344°
2026-04-15 15:30 -3.70601 -60.07310 16257 ft 369 kts 345°
2026-04-15 15:31 -3.68144 -60.08045 15740 ft 366 kts 344°
2026-04-15 15:31 -3.65709 -60.08775 15219 ft 364 kts 344°
2026-04-15 15:31 -3.63290 -60.09499 14722 ft 362 kts 345°
2026-04-15 15:31 -3.60881 -60.10219 14199 ft 359 kts 345°
2026-04-15 15:32 -3.58491 -60.10934 13694 ft 358 kts 345°
2026-04-15 15:32 -3.56113 -60.11646 13137 ft 355 kts 345°
2026-04-15 15:32 -3.53785 -60.12343 12629 ft 351 kts 345°
2026-04-15 15:32 -3.51448 -60.13042 12090 ft 349 kts 345°
2026-04-15 15:33 -3.49131 -60.13735 11588 ft 345 kts 345°
2026-04-15 15:33 -3.46840 -60.14420 11102 ft 342 kts 345°
2026-04-15 15:33 -3.44569 -60.15099 10620 ft 338 kts 345°
2026-04-15 15:33 -3.42321 -60.15772 10140 ft 336 kts 345°
2026-04-15 15:34 -3.40103 -60.16435 9901 ft 325 kts 346°
2026-04-15 15:34 -3.37992 -60.17068 9778 ft 309 kts 345°
2026-04-15 15:34 -3.35959 -60.17676 9443 ft 303 kts 345°
2026-04-15 15:34 -3.33949 -60.18277 9000 ft 300 kts 346°
2026-04-15 15:35 -3.31981 -60.18865 8595 ft 297 kts 346°
2026-04-15 15:35 -3.30002 -60.19456 8137 ft 295 kts 345°
2026-04-15 15:35 -3.28042 -60.20042 7715 ft 293 kts 346°
2026-04-15 15:35 -3.26097 -60.20623 7279 ft 291 kts 346°
2026-04-15 15:36 -3.24147 -60.21130 6872 ft 287 kts 351°
2026-04-15 15:36 -3.22195 -60.21489 6606 ft 281 kts 353°
2026-04-15 15:36 -3.20272 -60.21811 6391 ft 280 kts 353°
2026-04-15 15:36 -3.18350 -60.22128 6136 ft 279 kts 353°
2026-04-15 15:37 -3.16443 -60.22444 5881 ft 277 kts 353°
2026-04-15 15:37 -3.14543 -60.22749 5634 ft 275 kts 355°
2026-04-15 15:37 -3.12644 -60.22867 5388 ft 271 kts
2026-04-15 15:37 -3.10821 -60.22878 5225 ft 260 kts
2026-04-15 15:38 -3.09035 -60.22871 5005 ft 253 kts
2026-04-15 15:38 -3.07303 -60.22864 4799 ft 243 kts
2026-04-15 15:38 -3.05660 -60.22828 4589 ft 228 kts
2026-04-15 15:38 -3.04306 -60.22218 4373 ft 208 kts 48°
2026-04-15 15:39 -3.03770 -60.20963 4170 ft 195 kts 84°
2026-04-15 15:39 -3.03791 -60.19622 3787 ft 194 kts 92°
2026-04-15 15:39 -3.03840 -60.18249 3245 ft 199 kts 90°
2026-04-15 15:39 -3.03835 -60.16871 2703 ft 202 kts 89°
2026-04-15 15:40 -3.03833 -60.15924 2331 ft 201 kts 89°
2026-04-15 15:40 -3.03838 -60.14150 1815 ft 182 kts 89°
2026-04-15 15:40 -3.03842 -60.12953 1577 ft 162 kts 89°
2026-04-15 15:40 -3.03843 -60.11882 1374 ft 147 kts 91°
2026-04-15 15:41 -3.03845 -60.11221 1263 ft 141 kts 89°
2026-04-15 15:41 -3.03847 -60.10256 1085 ft 140 kts 89°
2026-04-15 15:41 -3.03850 -60.09277 899 ft 140 kts 90°
2026-04-15 15:41 -3.03852 -60.08302 721 ft 140 kts 88°
2026-04-15 15:42 -3.03854 -60.07331 536 ft 137 kts 88°
2026-04-15 15:42 -3.03858 -60.06361 352 ft 138 kts 89°
2026-04-15 15:42 -3.03856 -60.05455 274 ft 112 kts 90°
2026-04-15 15:42 -3.03860 -60.04855 275 ft 60 kts 91°
2026-04-15 15:43 -3.03861 -60.04552 276 ft 39 kts 90°
2026-04-15 15:43 -3.03861 -60.04293 276 ft 37 kts 90°
2026-04-15 15:43 -3.03862 -60.04037 275 ft 37 kts 90°
2026-04-15 15:43 -3.03846 -60.03804 278 ft 28 kts 51°
2026-04-15 15:44 -3.03705 -60.03804 275 ft 21 kts 310°
2026-04-15 15:44 -3.03658 -60.03935 277 ft 20 kts 285°
2026-04-15 15:44 -3.03621 -60.04073 278 ft 21 kts 285°
2026-04-15 15:44 -3.03586 -60.04204 275 ft 20 kts 285°
2026-04-15 15:45 -3.03522 -60.04305 275 ft 16 kts 313°
2026-04-15 15:45 -3.03433 -60.04360 279 ft 15 kts 342°
2026-04-15 15:45 -3.03346 -60.04405 275 ft 12 kts 309°
2026-04-15 15:45 -3.03338 -60.04473 275 ft 7 kts 258°
2026-04-15 15:46 -3.03346 -60.04522 275 ft 8 kts 262°
2026-04-15 15:46 -3.03353 -60.04574 275 ft 7 kts 264°
2026-04-15 15:46 -3.03349 -60.04605 275 ft 2 kts 300°
2026-04-15 15:46 -3.03337 -60.04611 276 ft 3 kts 338°
2026-04-15 15:47 -3.03310 -60.04614 277 ft 4 kts 356°
2026-04-15 15:47 -3.03284 -60.04615 275 ft 2 kts
2026-04-15 15:47 -3.03279 -60.04615 275 ft 0 kts